Location: NJAA Observatory
(40.6819°N, 74.8979°W)
Time: 11:38:22
(UTC-04:00)

Cosmos 1328 Rocket - Visible Passes

Search period start: 27 June 2017 00:00
Search period end: 07 July 2017 00:00
Orbit: 602 x 627 km, 82.5° (Epoch: 26 June)

Date Brightness Start Highest point End Pass type
(mag) Time Alt. Az. Time Alt. Az. Time Alt. Az.
27 Jun 3.5 22:17:09 10° N 22:21:29 88° W 22:23:58 25° S visible
28 Jun 4.3 22:33:13 10° NNW 22:37:22 46° W 22:40:05 20° SSW visible
29 Jun 4.8 21:11:54 10° NNE 21:15:29 25° ENE 21:19:03 10° SE visible
29 Jun 5.4 22:49:36 10° NNW 22:53:10 25° W 22:56:13 12° SW visible
30 Jun 4.0 21:27:24 10° N 21:31:34 44° ENE 21:35:17 12° SSE visible
30 Jun 6.1 23:06:35 10° NW 23:08:53 14° W 23:11:11 10° WSW visible
01 Jul 3.5 21:43:12 10° N 21:47:32 84° E 21:51:29 12° S visible
02 Jul 4.3 21:59:14 10° NNW 22:03:25 51° W 22:07:35 10° S visible
03 Jul 5.4 22:15:34 10° NNW 22:19:15 27° W 22:22:53 10° SSW visible
04 Jul 6.1 22:32:25 10° NW 22:34:58 15° W 22:37:30 10° WSW visible
05 Jul 3.5 21:09:15 10° N 21:13:35 77° E 21:17:52 10° SSE visible
06 Jul 4.2 21:25:15 10° NNW 21:29:29 56° W 21:33:41 10° S visible
